When you browse on this site, cookies collect data to enhance your experience and personalize the content and advertising you see.
Visit our Privacy Policy to learn more. By continuing to use the site, you agree to this use of cookies and data.
  • In Portugal
  • List of Countries
  • For 7 days
  • Water Temperature
  • Satellite Maps
  • Weather Map
  • Weather Widgets
  • user-avatar
    Login

    Hourly Weather Hrazdan

    Today, 24 July, Wednesday

    Time Temperature Precipitation Wind Pressure Humidity
    00:00 +17°C° 0 mm 3 mps 611 mmHg 88%
    01:00 +17°C° 0 mm 2 mps 611 mmHg 88%
    02:00 +16°C° 0 mm 2 mps 610 mmHg 88%
    03:00 +16°C° 0 mm 2 mps 610 mmHg 90%
    04:00 +17°C° 0 mm 2 mps 610 mmHg 89%
    05:00 +17°C° 0 mm 2 mps 611 mmHg 89%
    06:00 +18°C° 0 mm 2 mps 611 mmHg 88%
    07:00 +19°C° 0 mm 2 mps 611 mmHg 82%
    08:00 +21°C° 0 mm 2 mps 612 mmHg 77%
    09:00 +23°C° 0 mm 2 mps 612 mmHg 72%
    10:00 +24°C° 0.2 mm 2 mps 612 mmHg 68%
    11:00 +25°C° 0.2 mm 3 mps 613 mmHg 64%
    12:00 +26°C° 0.2 mm 3 mps 613 mmHg 60%
    13:00 +27°C° 0.3 mm 3 mps 613 mmHg 59%
    14:00 +27°C° 0.3 mm 3 mps 612 mmHg 57%
    15:00 +27°C° 0.3 mm 3 mps 612 mmHg 55%
    16:00 +26°C° 0.2 mm 3 mps 612 mmHg 62%
    17:00 +25°C° 0.2 mm 3 mps 611 mmHg 68%
    18:00 +22°C° 0.2 mm 3 mps 611 mmHg 75%
    19:00 +21°C° 0 mm 2 mps 611 mmHg 77%
    20:00 +20°C° 0 mm 2 mps 611 mmHg 80%
    21:00 +18°C° 0 mm 2 mps 611 mmHg 83%
    22:00 +18°C° 0 mm 2 mps 611 mmHg 81%
    23:00 +18°C° 0 mm 1 mps 611 mmHg 78%

    Tomorrow, 25 July, Thursday

    Time Temperature Precipitation Wind Pressure Humidity
    00:00 +18°C° 0 mm 1 mps 611 mmHg 76%
    01:00 +18°C° 0 mm 1 mps 611 mmHg 74%
    02:00 +16°C° 0 mm 1 mps 611 mmHg 73%
    03:00 +16°C° 0 mm 1 mps 611 mmHg 71%
    04:00 +18°C° 0 mm 1 mps 611 mmHg 68%
    05:00 +18°C° 0 mm 1 mps 611 mmHg 65%
    06:00 +18°C° 0 mm 1 mps 612 mmHg 62%
    07:00 +21°C° 0 mm 1 mps 612 mmHg 54%
    08:00 +23°C° 0 mm 1 mps 613 mmHg 47%
    09:00 +25°C° 0 mm 1 mps 614 mmHg 39%
    10:00 +26°C° 0 mm 2 mps 614 mmHg 36%
    11:00 +27°C° 0 mm 2 mps 614 mmHg 33%
    12:00 +28°C° 0 mm 3 mps 614 mmHg 30%
    13:00 +28°C° 0 mm 3 mps 614 mmHg 30%
    14:00 +29°C° 0 mm 3 mps 614 mmHg 29%
    15:00 +29°C° 0 mm 3 mps 614 mmHg 29%
    16:00 +27°C° 0.1 mm 3 mps 613 mmHg 38%
    17:00 +26°C° 0.1 mm 2 mps 613 mmHg 48%
    18:00 +25°C° 0.1 mm 2 mps 612 mmHg 58%
    19:00 +21°C° 0 mm 2 mps 612 mmHg 67%
    20:00 +19°C° 0 mm 2 mps 611 mmHg 76%
    21:00 +17°C° 0 mm 2 mps 611 mmHg 84%
    22:00 +16°C° 0 mm 2 mps 611 mmHg 82%
    23:00 +16°C° 0 mm 2 mps 611 mmHg 80%

    Day after tomorrow, 26 July, Friday

    Time Temperature Precipitation Wind Pressure Humidity
    00:00 +16°C° 0 mm 2 mps 611 mmHg 78%
    01:00 +15°C° 0 mm 2 mps 611 mmHg 80%
    02:00 +15°C° 0 mm 1 mps 611 mmHg 81%
    03:00 +14°C° 0 mm 1 mps 611 mmHg 82%
    04:00 +15°C° 0 mm 1 mps 611 mmHg 81%
    05:00 +15°C° 0 mm 1 mps 612 mmHg 79%
    06:00 +16°C° 0 mm 1 mps 612 mmHg 78%
    07:00 +19°C° 0 mm 1 mps 613 mmHg 72%
    08:00 +19°C° 0 mm 2 mps 613 mmHg 66%
    09:00 +21°C° 0 mm 2 mps 614 mmHg 61%
    10:00 +23°C° 0.2 mm 2 mps 614 mmHg 57%
    11:00 +24°C° 0.2 mm 2 mps 614 mmHg 53%
    12:00 +25°C° 0.2 mm 2 mps 614 mmHg 49%
    13:00 +25°C° 0.4 mm 3 mps 614 mmHg 50%
    14:00 +25°C° 0.4 mm 3 mps 613 mmHg 51%
    15:00 +25°C° 0.4 mm 3 mps 613 mmHg 52%
    16:00 +24°C° 0.3 mm 3 mps 612 mmHg 58%
    17:00 +22°C° 0.3 mm 3 mps 612 mmHg 63%
    18:00 +21°C° 0.3 mm 3 mps 612 mmHg 68%
    19:00 +19°C° 0 mm 3 mps 612 mmHg 72%
    20:00 +17°C° 0 mm 3 mps 611 mmHg 76%
    21:00 +16°C° 0 mm 2 mps 611 mmHg 80%
    22:00 +15°C° 0 mm 2 mps 611 mmHg 80%
    23:00 +15°C° 0 mm 2 mps 611 mmHg 79%

    27 July, Saturday

    Time Temperature Precipitation Wind Pressure Humidity
    00:00 +14°C° 0 mm 2 mps 611 mmHg 78%
    01:00 +14°C° 0 mm 2 mps 611 mmHg 79%
    02:00 +14°C° 0 mm 2 mps 611 mmHg 80%
    03:00 +14°C° 0 mm 2 mps 611 mmHg 80%
    04:00 +14°C° 0 mm 2 mps 611 mmHg 80%
    05:00 +14°C° 0 mm 2 mps 611 mmHg 80%
    06:00 +14°C° 0 mm 1 mps 611 mmHg 80%
    07:00 +16°C° 0 mm 2 mps 611 mmHg 75%
    08:00 +18°C° 0 mm 2 mps 612 mmHg 71%
    09:00 +20°C° 0 mm 2 mps 612 mmHg 66%
    10:00 +21°C° 0 mm 2 mps 612 mmHg 63%
    11:00 +23°C° 0 mm 2 mps 612 mmHg 60%
    12:00 +24°C° 0 mm 3 mps 612 mmHg 58%
    13:00 +24°C° 0.3 mm 3 mps 612 mmHg 59%
    14:00 +24°C° 0.3 mm 3 mps 611 mmHg 60%
    15:00 +24°C° 0.3 mm 3 mps 611 mmHg 61%
    16:00 +22°C° 0.1 mm 3 mps 610 mmHg 66%
    17:00 +21°C° 0.1 mm 3 mps 610 mmHg 71%
    18:00 +20°C° 0.1 mm 3 mps 609 mmHg 75%
    19:00 +18°C° 0 mm 3 mps 609 mmHg 79%
    20:00 +17°C° 0 mm 3 mps 609 mmHg 83%
    21:00 +16°C° 0 mm 3 mps 609 mmHg 87%
    22:00 +16°C° 0.1 mm 3 mps 609 mmHg 87%
    23:00 +16°C° 0.1 mm 3 mps 609 mmHg 86%

    28 July, Sunday

    Time Temperature Precipitation Wind Pressure Humidity
    00:00 +15°C° 0.1 mm 2 mps 609 mmHg 86%
    01:00 +15°C° 0 mm 2 mps 609 mmHg 86%
    02:00 +15°C° 0 mm 2 mps 609 mmHg 87%
    03:00 +15°C° 0 mm 2 mps 609 mmHg 87%
    04:00 +15°C° 0 mm 2 mps 609 mmHg 87%
    05:00 +15°C° 0 mm 2 mps 609 mmHg 87%
    06:00 +16°C° 0 mm 2 mps 609 mmHg 86%
    07:00 +17°C° 0 mm 2 mps 610 mmHg 81%
    08:00 +18°C° 0 mm 2 mps 610 mmHg 76%
    09:00 +20°C° 0 mm 2 mps 610 mmHg 70%
    10:00 +21°C° 0.3 mm 2 mps 611 mmHg 68%
    11:00 +23°C° 0.3 mm 2 mps 611 mmHg 65%
    12:00 +24°C° 0.3 mm 3 mps 611 mmHg 62%
    13:00 +25°C° 0.3 mm 3 mps 610 mmHg 62%
    14:00 +25°C° 0.3 mm 3 mps 610 mmHg 61%
    15:00 +25°C° 0.3 mm 3 mps 610 mmHg 61%
    16:00 +24°C° 0.3 mm 3 mps 609 mmHg 65%
    17:00 +22°C° 0.3 mm 3 mps 609 mmHg 68%
    18:00 +21°C° 0.3 mm 3 mps 609 mmHg 72%
    19:00 +20°C° 0.4 mm 3 mps 609 mmHg 76%
    20:00 +18°C° 0.4 mm 3 mps 609 mmHg 80%
    21:00 +16°C° 0.4 mm 2 mps 608 mmHg 85%
    22:00 +16°C° 0.2 mm 2 mps 608 mmHg 85%
    23:00 +16°C° 0.2 mm 2 mps 608 mmHg 84%

    29 July, Monday

    Time Temperature Precipitation Wind Pressure Humidity
    00:00 +16°C° 0.2 mm 2 mps 608 mmHg 84%
    01:00 +16°C° 0.7 mm 2 mps 609 mmHg 85%
    02:00 +16°C° 0.7 mm 2 mps 609 mmHg 85%
    03:00 +16°C° 0.7 mm 2 mps 609 mmHg 86%
    04:00 +16°C° 0.3 mm 2 mps 609 mmHg 86%
    05:00 +16°C° 0.3 mm 2 mps 609 mmHg 86%
    06:00 +16°C° 0.3 mm 2 mps 609 mmHg 86%
    07:00 +17°C° 0.1 mm 2 mps 610 mmHg 81%
    08:00 +19°C° 0.1 mm 2 mps 610 mmHg 75%
    09:00 +21°C° 0.1 mm 2 mps 611 mmHg 69%
    10:00 +21°C° 0.7 mm 2 mps 611 mmHg 67%
    11:00 +23°C° 0.7 mm 2 mps 611 mmHg 65%
    12:00 +24°C° 0.7 mm 2 mps 611 mmHg 62%
    13:00 +24°C° 0.8 mm 2 mps 611 mmHg 62%
    14:00 +24°C° 0.8 mm 2 mps 611 mmHg 62%
    15:00 +24°C° 0.8 mm 2 mps 611 mmHg 62%
    16:00 +21°C° 2.8 mm 2 mps 610 mmHg 68%
    17:00 +18°C° 2.8 mm 3 mps 609 mmHg 75%
    18:00 +16°C° 2.8 mm 3 mps 609 mmHg 82%
    19:00 +16°C° 0.1 mm 3 mps 609 mmHg 79%
    20:00 +16°C° 0.1 mm 3 mps 610 mmHg 77%
    21:00 +16°C° 0.1 mm 2 mps 610 mmHg 74%
    22:00 +16°C° 0.1 mm 2 mps 610 mmHg 74%
    23:00 +15°C° 0.1 mm 1 mps 610 mmHg 75%
    Show more